Retour au catalogue

STARLINK-34297

ActifCommunicationsVLEO
NORAD 64261·PAYLOAD·🇺🇸 United States

Lancé Jun 4, 2025 depuis Vandenberg Space Force Base

Loading…

Prochains Passages (prochaines 24 heures)

TLE

FraisSource: CelesTrak SupGP

Époque: Sep 14, 2026, 23:00 UTC

1 64261C 25120F   26257.95881944  .00044062  00000+0  13021-2 0  2570
2 64261  53.1589 311.9574 0001212  87.1394 251.0154 15.34361684    10

Suivez STARLINK-34297 en temps réel avec AllMySat

Download on the App Store